Location: Veytaux
(46.4185°N, 6.9320°E)
Time: 09:06:47
(UTC+00:00)

Helios 1B rocket - Pass Details

Date: 27 May 2022
Orbit: 569 x 578 km, 98.2° (Epoch: 01 July)

Event Time Altitude Azimuth Distance (km) Brightness Sun altitude
Rises 02:41:55 0° 15° (NNE) 2,785 7.1 -9.6°
Reaches altitude 10° 02:44:05 10° 17° (NNE) 1,882 6.1 -9.3°
Maximum altitude 02:48:09 74° 103° (ESE) 598 2.6 -8.8°
Drops below altitude 10° 02:52:11 10° 189° (S) 1,867 4.6 -8.3°
Enters shadow 02:53:13 - 190° (S) 2,299 5.0 -8.2°
